TimeEST,TemperatureF,Dew PointF,Humidity,Sea Level PressureIn,VisibilityMPH,Wind Direction,Wind SpeedMPH,Gust SpeedMPH,PrecipitationIn,Events,Conditions,WindDirDegrees,DateUTC
12:15 AM,50.0,48.2,94,29.73,0.8,South,11.5,18.4,N/A,,Overcast,180,2014-01-06 05:15:00
12:35 AM,50.0,50.0,100,29.73,1.0,South,12.7,19.6,N/A,,Overcast,190,2014-01-06 05:35:00
12:55 AM,51.8,50.0,94,29.72,1.2,South,9.2,18.4,N/A,,Overcast,180,2014-01-06 05:55:00
1:15 AM,51.8,50.0,94,29.73,1.5,SSW,10.4,18.4,N/A,Rain,Light Rain,200,2014-01-06 06:15:00
1:35 AM,51.8,51.8,100,29.72,2.5,South,9.2,16.1,N/A,Rain,Rain,190,2014-01-06 06:35:00
1:55 AM,51.8,51.8,100,29.72,4.0,SSW,9.2,-,N/A,Rain,Light Rain,200,2014-01-06 06:55:00
2:15 AM,51.8,51.8,100,29.72,3.0,SSW,9.2,-,N/A,,Heavy Drizzle,200,2014-01-06 07:15:00
2:35 AM,44.6,44.6,100,29.77,5.0,West,15.0,25.3,N/A,Rain,Light Rain,280,2014-01-06 07:35:00
2:55 AM,42.8,42.8,100,29.78,5.0,West,16.1,23.0,N/A,,Drizzle,280,2014-01-06 07:55:00
3:15 AM,42.8,41.0,93,29.79,10.0,West,10.4,17.3,N/A,,Overcast,260,2014-01-06 08:15:00
3:35 AM,41.0,41.0,100,29.79,10.0,West,9.2,-,N/A,,Overcast,260,2014-01-06 08:35:00
3:55 AM,41.0,39.2,93,29.78,10.0,West,11.5,16.1,N/A,Rain,Light Rain,260,2014-01-06 08:55:00
4:15 AM,41.0,37.4,87,29.79,10.0,West,8.1,-,N/A,,Overcast,260,2014-01-06 09:15:00
4:35 AM,39.2,37.4,93,29.80,10.0,West,9.2,17.3,N/A,Rain,Light Rain,260,2014-01-06 09:35:00
4:55 AM,37.4,35.6,93,29.82,10.0,West,10.4,18.4,N/A,,Overcast,260,2014-01-06 09:55:00
5:15 AM,37.4,35.6,93,29.82,10.0,West,10.4,20.7,N/A,,Overcast,260,2014-01-06 10:15:00
5:35 AM,35.6,32.0,87,29.84,10.0,West,12.7,26.5,N/A,,Mostly Cloudy,270,2014-01-06 10:35:00
5:55 AM,33.8,32.0,93,29.86,10.0,West,11.5,20.7,N/A,,Mostly Cloudy,270,2014-01-06 10:55:00
6:15 AM,33.8,32.0,93,29.87,10.0,West,11.5,21.9,N/A,,Overcast,280,2014-01-06 11:15:00
6:35 AM,32.0,30.2,93,29.88,10.0,West,16.1,26.5,N/A,,Overcast,280,2014-01-06 11:35:00
6:55 AM,32.0,28.4,87,29.89,10.0,West,12.7,23.0,N/A,,Overcast,280,2014-01-06 11:55:00
7:15 AM,32.0,28.4,87,29.92,10.0,West,8.1,23.0,N/A,,Overcast,270,2014-01-06 12:15:00
7:35 AM,32.0,28.4,87,29.93,10.0,West,11.5,18.4,N/A,,Overcast,270,2014-01-06 12:35:00
7:55 AM,32.0,26.6,80,29.95,10.0,West,11.5,18.4,N/A,,Overcast,270,2014-01-06 12:55:00
8:15 AM,30.2,24.8,80,29.97,10.0,West,9.2,28.8,N/A,,Overcast,270,2014-01-06 13:15:00
8:35 AM,30.2,23.0,75,29.99,10.0,West,12.7,18.4,N/A,,Overcast,280,2014-01-06 13:35:00
8:55 AM,30.2,21.2,69,30.01,10.0,West,10.4,19.6,N/A,,Mostly Cloudy,270,2014-01-06 13:55:00
9:15 AM,30.2,21.2,69,30.02,10.0,West,9.2,16.1,N/A,,Scattered Clouds,280,2014-01-06 14:15:00
9:35 AM,30.2,21.2,69,30.03,10.0,West,8.1,16.1,N/A,,Clear,270,2014-01-06 14:35:00
9:55 AM,30.2,21.2,69,30.04,10.0,West,15.0,25.3,N/A,,Clear,280,2014-01-06 14:55:00
10:15 AM,30.2,21.2,69,30.05,10.0,West,9.2,19.6,N/A,,Clear,270,2014-01-06 15:15:00
10:35 AM,32.0,21.2,64,30.06,10.0,West,17.3,27.6,N/A,,Clear,270,2014-01-06 15:35:00
10:55 AM,32.0,21.2,64,30.07,10.0,West,8.1,26.5,N/A,,Clear,270,2014-01-06 15:55:00
11:15 AM,32.0,19.4,60,30.07,10.0,West,16.1,25.3,N/A,,Clear,270,2014-01-06 16:15:00
11:35 AM,32.0,21.2,64,30.06,10.0,West,11.5,18.4,N/A,,Clear,280,2014-01-06 16:35:00
11:55 AM,32.0,19.4,60,30.06,10.0,West,12.7,21.9,N/A,,Clear,270,2014-01-06 16:55:00
12:15 PM,33.8,19.4,56,30.06,10.0,WNW,13.8,19.6,N/A,,Clear,290,2014-01-06 17:15:00
12:35 PM,33.8,19.4,56,30.06,10.0,West,16.1,24.2,N/A,,Clear,270,2014-01-06 17:35:00
12:55 PM,32.0,19.4,60,30.06,10.0,West,10.4,20.7,N/A,,Clear,280,2014-01-06 17:55:00
1:15 PM,33.8,19.4,56,30.05,10.0,West,9.2,18.4,N/A,,Clear,260,2014-01-06 18:15:00
1:35 PM,32.0,17.6,55,30.06,10.0,West,13.8,25.3,N/A,,Clear,280,2014-01-06 18:35:00
1:55 PM,33.8,17.6,52,30.07,10.0,WNW,12.7,21.9,N/A,,Clear,290,2014-01-06 18:55:00
2:15 PM,32.0,17.6,55,30.07,10.0,West,12.7,24.2,N/A,,Clear,260,2014-01-06 19:15:00
2:35 PM,32.0,14.0,48,30.07,10.0,West,10.4,20.7,N/A,,Clear,280,2014-01-06 19:35:00
2:55 PM,33.8,14.0,44,30.08,10.0,WNW,12.7,21.9,N/A,,Clear,290,2014-01-06 19:55:00
3:15 PM,32.0,12.2,44,30.09,10.0,West,12.7,24.2,N/A,,Clear,280,2014-01-06 20:15:00
3:35 PM,32.0,12.2,44,30.10,10.0,West,13.8,26.5,N/A,,Clear,280,2014-01-06 20:35:00
3:55 PM,32.0,10.4,41,30.10,10.0,West,11.5,21.9,N/A,,Clear,280,2014-01-06 20:55:00
4:15 PM,32.0,8.6,38,30.12,10.0,West,11.5,20.7,N/A,,Clear,270,2014-01-06 21:15:00
4:35 PM,30.2,10.4,44,30.13,10.0,West,12.7,25.3,N/A,,Clear,270,2014-01-06 21:35:00
4:55 PM,28.4,6.8,40,30.15,10.0,West,11.5,24.2,N/A,,Clear,270,2014-01-06 21:55:00
5:15 PM,26.6,8.6,47,30.16,10.0,West,10.4,20.7,N/A,,Clear,260,2014-01-06 22:15:00
5:35 PM,26.6,6.8,43,30.18,10.0,West,13.8,20.7,N/A,,Clear,280,2014-01-06 22:35:00
5:55 PM,23.0,5.0,46,30.19,10.0,West,12.7,19.6,N/A,,Clear,280,2014-01-06 22:55:00
6:15 PM,23.0,6.8,50,30.21,10.0,West,9.2,20.7,N/A,,Clear,280,2014-01-06 23:15:00
6:35 PM,23.0,5.0,46,30.22,10.0,West,9.2,18.4,N/A,,Clear,280,2014-01-06 23:35:00
6:55 PM,21.2,3.2,46,30.23,10.0,WNW,8.1,18.4,N/A,,Clear,290,2014-01-06 23:55:00
7:15 PM,21.2,3.2,46,30.26,10.0,WNW,6.9,-,N/A,,Clear,300,2014-01-07 00:15:00
7:35 PM,21.2,3.2,46,30.27,10.0,WNW,8.1,-,N/A,,Clear,300,2014-01-07 00:35:00
7:55 PM,19.4,3.2,49,30.29,10.0,WNW,8.1,-,N/A,,Clear,290,2014-01-07 00:55:00
8:15 PM,19.4,1.4,46,30.30,10.0,West,11.5,17.3,N/A,,Clear,280,2014-01-07 01:15:00
8:35 PM,19.4,1.4,46,30.30,10.0,WNW,9.2,-,N/A,,Clear,290,2014-01-07 01:35:00
8:55 PM,17.6,1.4,49,30.31,10.0,West,12.7,20.7,N/A,,Clear,280,2014-01-07 01:55:00
9:15 PM,17.6,1.4,49,30.32,10.0,WNW,11.5,17.3,N/A,,Clear,290,2014-01-07 02:15:00
9:35 PM,17.6,1.4,49,30.33,10.0,WNW,10.4,18.4,N/A,,Clear,290,2014-01-07 02:35:00
9:55 PM,17.6,1.4,49,30.33,10.0,WNW,10.4,19.6,N/A,,Clear,290,2014-01-07 02:55:00
10:15 PM,17.6,1.4,49,30.33,10.0,West,13.8,19.6,N/A,,Clear,280,2014-01-07 03:15:00
10:35 PM,17.6,1.4,49,30.33,10.0,West,6.9,19.6,N/A,,Clear,280,2014-01-07 03:35:00
10:55 PM,15.8,1.4,53,30.34,10.0,WNW,8.1,16.1,N/A,,Clear,290,2014-01-07 03:55:00
11:15 PM,15.8,1.4,53,30.35,10.0,West,9.2,19.6,N/A,,Clear,280,2014-01-07 04:15:00
11:35 PM,15.8,1.4,53,30.34,10.0,West,10.4,16.1,N/A,,Clear,280,2014-01-07 04:35:00
11:55 PM,14.0,1.4,57,30.35,10.0,West,6.9,-,N/A,,Clear,270,2014-01-07 04:55:00